Regional Weather Roundup
Issued by NWS

Home | Current Version | Previous Version | Graphics & Text | Print | Product List | Glossary On
Versions: 1 2 3 4 5 6 7 8 9 10 11 12 13 14 15 16 17 18 19 20 21 22 23 24 25 26 27 28 29 30 31 32 33 34 35 36 37 38 39 40 41 42 43 44 45 46 47 48 49 50
000
ASUS43 KLMK 210910
RWRKY
NATIONAL WEATHER SERVICE LOUISVILLE KY
400 AM EST FRI NOV 21 2014

NOTE "FAIR" INDICATES FEW OR NO CLOUDS BELOW 12,000 FEET
WITH NO SIGNIFICANT WEATHER AND/OR OBSTRUCTIONS TO VISIBILITY.

KYZ001>023-026-027-061>063-070>075-211000-
WESTERN AND SOUTH CENTRAL KENTUCKY

CITY           SKY/WX    TMP DP  RH WIND       PRES   REMARKS
PADUCAH        CLOUDY    30  23  75 E6        30.35S WCI  24
HENDERSON      CLEAR     19  18  93 CALM      30.40S
OWENSBORO      CLEAR     22  20  92 MISG      30.40S
HOPKINSVILLE   NOT AVBL
BOWLING GREEN  CLEAR     22  17  81 CALM      30.40R
GLASGOW        CLEAR     20  18  93 CALM      30.38S
$$

KYZ024-025-028>034-038-045-046-053-211000-
NORTH CENTRAL KENTUCKY

CITY           SKY/WX    TMP DP  RH WIND       PRES   REMARKS
LOUISVILLE/SDF CLEAR     24  18  77 CALM      30.41R
LOUISVILLE/LOU CLEAR     20  16  84 CALM      30.41R
FORT KNOX      CLEAR     17  14  88 CALM      30.38R
$$

KYZ035>037-039>044-047>052-055>060-089>105-211000-
NORTHEAST KENTUCKY

CITY           SKY/WX    TMP DP  RH WIND       PRES   REMARKS
LEXINGTON      CLEAR     21  15  78 CALM      30.37R
COVINGTON      CLEAR     21  11  65 NW8       30.36R WCI  11
FRANKFORT      CLEAR     17  12  80 N3        30.37R
$$

KYZ054-064>069-076>088-106>120-211000-
SOUTHEAST KENTUCKY

CITY           SKY/WX    TMP DP  RH WIND       PRES   REMARKS
JACKSON        CLEAR     22  15  75 SW5       30.35R WCI  16
LONDON         CLEAR     23  18  81 S3        30.37R
SOMERSET       CLEAR     21  18  86 CALM      30.40R
MIDDLESBORO    CLEAR     24  21  91 CALM      30.36S
MONTICELLO     SUNNY     17  15  92 CALM      30.41R
$$



USA.gov is the U.S. government's official web portal to all federal, state and local government web resources and services.